Regional Weather Roundup
Issued by NWS Sioux Falls, SD

Home | Current Version | Previous Version | Graphics & Text | Print | Product List | Glossary On
Versions: 1 2 3 4 5 6 7 8 9 10 11 12 13 14 15 16 17 18 19 20 21 22 23 24 25 26 27 28 29 30 31 32 33 34 35 36 37 38 39 40 41 42 43 44 45 46 47 48 49 50
000
ASUS43 KFSD 251702
RWRFSD

WEATHER ROUNDUP FOR SE SOUTH DAKOTA/SW MINNESOTA/NW IOWA
NATIONAL WEATHER SERVICE SIOUX FALLS SD
1200 PM CDT FRI JUL 25 2014

NOTE: "FAIR" INDICATES FEW OR NO CLOUDS BELOW 12,000 FEET WITH NO
SIGNIFICANT WEATHER AND OR OBSTRUCTIONS TO VISIBILITY.


SDZ038>040-050-052>070-251800-
SOUTHEAST SOUTH DAKOTA

CITY           SKY/WX    TMP DP  RH WIND       PRES   REMARKS
CHAMBERLAIN    SUNNY     81  66  61 NW12G18   29.81R
HURON          PTSUNNY   80  68  66 VRB6      29.76S
MADISON        PTSUNNY   77  72  83 S9        29.80R
MITCHELL       SUNNY     81  69  67 VRB5      29.77S
SIOUX FALLS    MOSUNNY   77  68  73 SE9       29.79R
WINNER         FAIR      86  67  52 NW17      29.84R
YANKTON        SUNNY     79  70  73 S6        29.76S
$$

MNZ071-072-080-081-089-090-097-098-251800-
SOUTHWEST MINNESOTA

CITY           SKY/WX    TMP DP  RH WIND       PRES   REMARKS
FAIRMONT       SUNNY     75  57  53 S16G23    29.81F
JACKSON        MOSUNNY   75  63  64 S14G22    29.82F
LUVERNE        MOSUNNY   75  64  69 S10       29.80S
MARSHALL       SUNNY     79  64  61 SW14      29.77S
MONTEVIDEO     SUNNY     81  73  78 SW9       29.77F
PIPESTONE      MOSUNNY   75  66  73 S9        29.81S
REDWOOD FALLS  CLOUDY    76  65  68 SW9       29.78F
TRACY          SUNNY     77  66  68 S13G18    29.79S
WORTHINGTON    MOSUNNY   73  64  73 S10       29.83S
$$

IAZ001>003-012>014-020>022-031-032-NEZ013-014-SDZ071-251800-
NORTHWEST IOWA

CITY           SKY/WX    TMP DP  RH WIND       PRES   REMARKS
CHEROKEE       SUNNY     74  66  75 S15G21    29.79R
DENISON        SUNNY     72  64  78 SE20G29   29.76F
ESTHERVILLE    MOSUNNY   74  64  71 S18G29    29.82R
LE MARS        SUNNY     77  66  69 S15G22    29.77F
ORANGE CITY    SUNNY     75  64  69 S14G21    29.79S
SHELDON        SUNNY     75  66  73 S14       29.79S
SIOUX CITY     NOT AVBL
SPENCER        MOSUNNY   76  64  66 S13G21    29.81R
STORM LAKE     SUNNY     72  66  83 S20G29    29.78F
$$

ABBREVIATIONS USED IN REMARKS
   TC - TEMPERATURE IN CELSIUS
  WCI - WIND CHILL INDEX
   HX - HEAT INDEX
  VSB - VISIBILITY



USA.gov is the U.S. government's official web portal to all federal, state and local government web resources and services.